Location: Newark
(45.4333°N, 73.7333°W)
Time: 22:54:08
(UTC+00:00)

ISS - Visible Passes

Search period start: 23 October 2019 00:00
Search period end: 02 November 2019 00:00
Orbit: 411 x 421 km, 51.6° (Epoch: 24 October)

Date Brightness Start Highest point End Pass type
(mag) Time Alt. Az. Time Alt. Az. Time Alt. Az.
23 Oct -0.6 10:14:52 10° SSE 10:16:21 12° SE 10:17:51 10° ESE visible
25 Oct -1.9 10:12:35 10° SSW 10:15:34 30° SE 10:18:34 10° ENE visible
26 Oct -1.3 09:25:35 14° S 09:27:07 19° SE 09:29:34 10° E visible
27 Oct -0.4 08:39:35 11° ESE 08:39:35 11° ESE 08:39:55 10° ESE visible
27 Oct -3.6 10:12:30 17° SW 10:14:55 73° SSE 10:18:18 10° ENE visible
28 Oct -2.9 09:26:20 45° SE 09:26:21 45° SE 09:29:36 10° ENE visible
29 Oct -0.6 08:40:00 15° E 08:40:00 15° E 08:40:45 10° E visible
29 Oct -3.5 10:12:55 28° W 10:14:24 54° NNW 10:17:44 10° NE visible
30 Oct -3.0 09:26:29 50° NE 09:26:29 50° NE 09:29:06 10° ENE visible
30 Oct -2.5 10:59:47 10° WNW 11:02:48 29° N 11:05:49 10° NE visible
31 Oct -0.5 08:39:57 13° ENE 08:39:57 13° ENE 08:40:26 10° ENE visible
31 Oct -2.8 10:12:51 26° NW 10:14:00 34° NNW 10:17:07 10° NE visible
01 Nov -2.3 09:26:16 31° NNE 09:26:16 31° NNE 09:28:27 10° NE visible
01 Nov -2.3 10:59:32 10° WNW 11:02:29 27° N 11:05:25 10° ENE visible
